When you browse on this site, cookies collect data to enhance your experience and personalize the content and advertising you see.
Visit our Privacy Policy to learn more. By continuing to use the site, you agree to this use of cookies and data.
  • In United Kingdom
  • List of Countries
  • For 7 days
  • Water Temperature
  • Weather Map
  • Weather Widgets
  • user-avatar
    Login

    Hourly Weather Tirana

    Today, 3 June, Wednesday

    Time Temperature Precipitation Wind Pressure Humidity
    00:00 +14°C° 0 mm 2 mps 749 mmHg 77%
    01:00 +13°C° 0 mm 3 mps 749 mmHg 79%
    02:00 +13°C° 0 mm 3 mps 749 mmHg 79%
    03:00 +13°C° 0 mm 3 mps 749 mmHg 78%
    04:00 +12°C° 0 mm 3 mps 748 mmHg 77%
    05:00 +14°C° 0 mm 3 mps 749 mmHg 71%
    06:00 +17°C° 0 mm 3 mps 749 mmHg 66%
    07:00 +19°C° 0 mm 3 mps 749 mmHg 60%
    08:00 +20°C° 0 mm 2 mps 749 mmHg 56%
    09:00 +23°C° 0 mm 2 mps 749 mmHg 51%
    10:00 +24°C° 0 mm 1 mps 749 mmHg 47%
    11:00 +24°C° 0 mm 2 mps 749 mmHg 46%
    12:00 +25°C° 0 mm 3 mps 749 mmHg 45%
    13:00 +25°C° 0 mm 3 mps 748 mmHg 43%
    14:00 +25°C° 0 mm 3 mps 748 mmHg 46%
    15:00 +24°C° 0 mm 3 mps 748 mmHg 49%
    16:00 +24°C° 0 mm 3 mps 748 mmHg 51%
    17:00 +21°C° 0 mm 2 mps 748 mmHg 59%
    18:00 +20°C° 0 mm 1 mps 748 mmHg 67%
    19:00 +16°C° 0 mm 0 mps 749 mmHg 74%
    20:00 +18°C° 0 mm 1 mps 749 mmHg 75%
    21:00 +16°C° 0 mm 2 mps 749 mmHg 76%
    22:00 +16°C° 0 mm 3 mps 750 mmHg 76%
    23:00 +16°C° 0 mm 3 mps 750 mmHg 76%

    Tomorrow, 4 June, Thursday

    Time Temperature Precipitation Wind Pressure Humidity
    00:00 +14°C° 0 mm 3 mps 750 mmHg 75%
    01:00 +14°C° 0 mm 3 mps 750 mmHg 74%
    02:00 +14°C° 0 mm 4 mps 750 mmHg 72%
    03:00 +14°C° 0 mm 4 mps 749 mmHg 70%
    04:00 +14°C° 0 mm 4 mps 749 mmHg 68%
    05:00 +17°C° 0 mm 4 mps 749 mmHg 62%
    06:00 +19°C° 0 mm 4 mps 749 mmHg 56%
    07:00 +21°C° 0 mm 4 mps 749 mmHg 51%
    08:00 +22°C° 0 mm 4 mps 750 mmHg 47%
    09:00 +25°C° 0 mm 5 mps 750 mmHg 43%
    10:00 +26°C° 0 mm 5 mps 750 mmHg 39%
    11:00 +27°C° 0 mm 6 mps 750 mmHg 39%
    12:00 +27°C° 0 mm 7 mps 750 mmHg 39%
    13:00 +28°C° 0 mm 8 mps 750 mmHg 39%
    14:00 +27°C° 0 mm 9 mps 750 mmHg 40%
    15:00 +27°C° 0 mm 9 mps 750 mmHg 42%
    16:00 +26°C° 0 mm 9 mps 750 mmHg 44%
    17:00 +23°C° 0 mm 9 mps 750 mmHg 52%
    18:00 +21°C° 0 mm 9 mps 750 mmHg 59%
    19:00 +18°C° 0 mm 9 mps 750 mmHg 67%
    20:00 +17°C° 0 mm 8 mps 750 mmHg 68%
    21:00 +17°C° 0 mm 8 mps 750 mmHg 70%
    22:00 +16°C° 0 mm 7 mps 751 mmHg 71%
    23:00 +16°C° 0 mm 6 mps 750 mmHg 69%

    Day after tomorrow, 5 June, Friday

    Time Temperature Precipitation Wind Pressure Humidity
    00:00 +16°C° 0 mm 5 mps 750 mmHg 67%
    01:00 +15°C° 0 mm 5 mps 750 mmHg 65%
    02:00 +15°C° 0 mm 4 mps 750 mmHg 63%
    03:00 +15°C° 0 mm 4 mps 750 mmHg 61%
    04:00 +15°C° 0 mm 4 mps 749 mmHg 60%
    05:00 +17°C° 0 mm 4 mps 749 mmHg 58%
    06:00 +19°C° 0 mm 5 mps 749 mmHg 55%
    07:00 +20°C° 0 mm 5 mps 749 mmHg 53%
    08:00 +21°C° 0.1 mm 5 mps 749 mmHg 52%
    09:00 +22°C° 0.1 mm 6 mps 749 mmHg 50%
    10:00 +23°C° 0.1 mm 6 mps 749 mmHg 49%
    11:00 +24°C° 0 mm 7 mps 748 mmHg 46%
    12:00 +26°C° 0 mm 9 mps 748 mmHg 44%
    13:00 +27°C° 0 mm 10 mps 748 mmHg 42%
    14:00 +23°C° 1.2 mm 10 mps 748 mmHg 54%
    15:00 +21°C° 1.2 mm 10 mps 748 mmHg 67%
    16:00 +17°C° 1.2 mm 10 mps 748 mmHg 79%
    17:00 +17°C° 0.5 mm 9 mps 748 mmHg 80%
    18:00 +16°C° 0.5 mm 8 mps 748 mmHg 82%
    19:00 +16°C° 0.5 mm 6 mps 748 mmHg 83%
    20:00 +16°C° 0.3 mm 6 mps 748 mmHg 83%
    21:00 +16°C° 0.3 mm 6 mps 749 mmHg 83%
    22:00 +16°C° 0.3 mm 5 mps 749 mmHg 83%
    23:00 +16°C° 0.1 mm 5 mps 749 mmHg 81%

    6 June, Saturday

    Time Temperature Precipitation Wind Pressure Humidity
    00:00 +17°C° 0.1 mm 4 mps 749 mmHg 80%
    01:00 +17°C° 0.1 mm 3 mps 749 mmHg 79%
    02:00 +17°C° 0 mm 3 mps 749 mmHg 78%
    03:00 +17°C° 0 mm 2 mps 749 mmHg 78%
    04:00 +16°C° 0 mm 2 mps 749 mmHg 77%
    05:00 +18°C° 0 mm 2 mps 749 mmHg 72%
    06:00 +19°C° 0 mm 2 mps 749 mmHg 66%
    07:00 +22°C° 0 mm 1 mps 750 mmHg 61%
    08:00 +24°C° 0 mm 1 mps 750 mmHg 56%
    09:00 +25°C° 0 mm 1 mps 750 mmHg 52%
    10:00 +26°C° 0 mm 1 mps 750 mmHg 47%
    11:00 +27°C° 0 mm 2 mps 750 mmHg 48%
    12:00 +27°C° 0 mm 3 mps 750 mmHg 49%
    13:00 +27°C° 0 mm 3 mps 750 mmHg 50%
    14:00 +27°C° 0 mm 3 mps 750 mmHg 53%
    15:00 +26°C° 0 mm 3 mps 750 mmHg 56%
    16:00 +26°C° 0 mm 2 mps 750 mmHg 59%
    17:00 +24°C° 0 mm 2 mps 750 mmHg 65%
    18:00 +23°C° 0 mm 1 mps 750 mmHg 71%
    19:00 +21°C° 0 mm 1 mps 750 mmHg 78%
    20:00 +21°C° 0 mm 1 mps 750 mmHg 78%
    21:00 +20°C° 0 mm 1 mps 751 mmHg 78%
    22:00 +19°C° 0 mm 2 mps 751 mmHg 79%
    23:00 +18°C° 0 mm 2 mps 751 mmHg 79%

    7 June, Sunday

    Time Temperature Precipitation Wind Pressure Humidity
    00:00 +19°C° 0 mm 1 mps 751 mmHg 79%
    01:00 +18°C° 0 mm 1 mps 751 mmHg 80%
    02:00 +18°C° 0 mm 1 mps 751 mmHg 80%
    03:00 +18°C° 0 mm 1 mps 751 mmHg 80%
    04:00 +17°C° 0 mm 2 mps 751 mmHg 80%
    05:00 +18°C° 0 mm 2 mps 751 mmHg 75%
    06:00 +20°C° 0 mm 2 mps 751 mmHg 70%
    07:00 +23°C° 0 mm 2 mps 751 mmHg 65%
    08:00 +24°C° 0 mm 2 mps 751 mmHg 61%
    09:00 +26°C° 0 mm 2 mps 751 mmHg 57%
    10:00 +27°C° 0 mm 2 mps 752 mmHg 53%
    11:00 +27°C° 0 mm 3 mps 751 mmHg 54%
    12:00 +27°C° 0 mm 3 mps 751 mmHg 54%
    13:00 +27°C° 0 mm 4 mps 751 mmHg 55%
    14:00 +27°C° 0 mm 3 mps 751 mmHg 54%
    15:00 +27°C° 0 mm 3 mps 751 mmHg 53%
    16:00 +26°C° 0 mm 3 mps 751 mmHg 52%
    17:00 +25°C° 0 mm 3 mps 751 mmHg 57%
    18:00 +24°C° 0 mm 3 mps 751 mmHg 63%
    19:00 +21°C° 0 mm 2 mps 752 mmHg 68%
    20:00 +21°C° 0 mm 2 mps 752 mmHg 69%
    21:00 +20°C° 0 mm 2 mps 752 mmHg 70%
    22:00 +20°C° 0 mm 2 mps 752 mmHg 71%
    23:00 +19°C° 0 mm 2 mps 752 mmHg 72%

    8 June, Monday

    Time Temperature Precipitation Wind Pressure Humidity
    00:00 +19°C° 0 mm 2 mps 752 mmHg 72%
    01:00 +18°C° 0 mm 2 mps 752 mmHg 72%
    02:00 +18°C° 0 mm 2 mps 752 mmHg 71%
    03:00 +18°C° 0 mm 2 mps 751 mmHg 71%
    04:00 +18°C° 0 mm 2 mps 751 mmHg 70%
    05:00 +20°C° 0 mm 2 mps 751 mmHg 65%
    06:00 +21°C° 0 mm 2 mps 751 mmHg 61%
    07:00 +24°C° 0 mm 2 mps 751 mmHg 56%
    08:00 +26°C° 0 mm 2 mps 751 mmHg 52%
    09:00 +27°C° 0 mm 3 mps 751 mmHg 48%
    10:00 +28°C° 0 mm 3 mps 751 mmHg 44%
    11:00 +29°C° 0 mm 4 mps 751 mmHg 44%
    12:00 +29°C° 0 mm 4 mps 751 mmHg 44%
    13:00 +29°C° 0 mm 5 mps 751 mmHg 44%
    14:00 +29°C° 0 mm 4 mps 751 mmHg 44%
    15:00 +29°C° 0 mm 4 mps 750 mmHg 44%
    16:00 +29°C° 0 mm 3 mps 750 mmHg 44%
    17:00 +27°C° 0 mm 3 mps 750 mmHg 52%
    18:00 +25°C° 0 mm 3 mps 750 mmHg 59%
    19:00 +23°C° 0 mm 2 mps 750 mmHg 67%
    20:00 +21°C° 0.3 mm 3 mps 750 mmHg 71%
    21:00 +20°C° 0.3 mm 4 mps 751 mmHg 75%
    22:00 +20°C° 0.3 mm 5 mps 751 mmHg 79%
    23:00 +19°C° 0.4 mm 4 mps 751 mmHg 80%
    Show more